{"data":{"norad_id":33055,"epoch":"2026-05-25T03:39:32.747040Z","epoch_age_seconds":65809,"freshness":"FRESH","line1":"1 33055U 08030A   26145.15246235 -.00000141  00000+0  00000+0 0  9998","line2":"2 33055   3.7324  77.3060 0003981 352.2772 210.2773  1.00271719 65729","mean_motion":1.00271719,"eccentricity":0.0003981,"inclination_deg":3.7324,"raan_deg":77.306,"arg_perigee_deg":352.2772,"mean_anomaly_deg":210.2773,"bstar":0,"rev_number":6572,"period_min":1436.0978492849,"perigee_km":35769.827676237,"apogee_km":35803.399250556,"semimajor_km":42164.750463397,"source":"CELESTRAK","updated_at":"2026-05-25T13:38:13.859142Z"}}